CDT,Max TemperatureF,Mean TemperatureF,Min TemperatureF,Max Dew PointF,MeanDew PointF,Min DewpointF,Max Humidity, Mean Humidity, Min Humidity, Max Sea Level PressureIn, Mean Sea Level PressureIn, Min Sea Level PressureIn, Max VisibilityMiles, Mean VisibilityMiles, Min VisibilityMiles, Max Wind SpeedMPH, Mean Wind SpeedMPH, Max Gust SpeedMPH,PrecipitationIn, CloudCover, Events, WindDirDegrees
2013-3-1,44,35,26,28,25,23,85,67,49,30.38,30.28,30.19,10,10,10,24,11,29,0.00,2,,343
2013-3-2,61,43,24,35,30,22,92,64,35,30.38,30.24,30.09,10,10,10,16,8,20,0.00,1,,286
2013-3-3,70,51,31,40,32,27,82,51,20,30.06,29.76,29.57,10,10,10,14,7,15,0.00,0,,220
2013-3-4,52,42,31,37,31,21,92,69,45,30.22,29.86,29.57,10,9,2,30,17,46,T,4,Snow,359
2013-3-5,56,38,20,18,14,11,73,49,25,30.44,30.37,30.27,10,10,10,21,12,26,0.00,0,,347
2013-3-6,64,45,25,23,20,17,63,41,18,30.35,30.15,29.96,10,10,10,33,19,43,0.00,0,,155
2013-3-7,73,54,39,31,26,21,53,38,22,29.95,29.90,29.85,10,10,10,20,11,26,0.00,0,,152
2013-3-8,71,56,40,54,44,30,89,61,33,29.91,29.78,29.69,10,9,6,33,17,39,T,3,Rain,164
2013-3-9,67,50,32,54,38,23,100,60,19,29.77,29.61,29.43,10,10,7,37,24,45,0.00,4,,260
2013-3-10,36,28,19,29,23,11,92,65,38,30.16,29.94,29.76,10,5,0,45,27,55,0.03,6,Fog-Snow,349
2013-3-11,60,39,17,29,20,12,84,54,23,30.14,30.02,29.92,10,10,10,17,9,22,0.00,2,,328
2013-3-12,52,42,31,36,26,18,92,60,28,30.37,30.25,30.08,10,10,8,22,11,29,0.02,5,Rain,350
2013-3-13,67,46,25,32,25,17,69,46,22,30.36,30.27,30.18,10,10,10,26,10,32,0.00,0,,185
2013-3-14,76,56,35,32,28,24,75,45,15,30.20,30.14,30.06,10,10,10,17,8,24,0.00,0,,266
2013-3-15,84,62,39,32,26,18,60,35,9,30.05,29.85,29.71,10,10,10,20,8,23,0.00,0,,257
2013-3-16,57,44,31,39,29,24,76,52,28,30.02,29.90,29.69,10,10,10,33,19,40,0.00,1,,44
2013-3-17,52,38,24,38,29,22,88,70,52,29.99,29.81,29.56,10,10,8,30,12,36,0.01,2,,116
2013-3-18,55,42,28,34,19,9,92,54,16,30.02,29.94,29.76,10,10,8,24,10,30,0.00,0,,322
2013-3-19,56,41,25,22,14,5,75,44,12,30.29,30.12,29.97,10,10,10,28,13,32,0.00,0,,74
2013-3-20,53,38,22,26,19,10,77,53,28,30.40,30.20,29.84,10,10,10,24,15,30,0.00,0,,112
2013-3-21,55,41,26,32,28,23,85,62,38,29.86,29.67,29.57,10,10,10,25,13,33,0.00,1,,106
2013-3-22,56,38,20,33,25,19,100,63,26,29.94,29.86,29.78,10,7,0,22,9,26,0.00,2,Fog,7
2013-3-23,35,30,24,30,26,21,100,88,75,30.18,29.91,29.80,10,3,0,31,19,37,0.01,8,Fog-Rain-Snow,46
2013-3-24,35,24,12,21,16,8,92,65,38,30.31,30.22,30.10,10,8,1,30,14,36,T,3,Snow,346
2013-3-25,36,25,14,18,11,8,80,56,32,30.44,30.40,30.33,10,10,10,26,15,33,0.00,0,,335
2013-3-26,60,35,10,19,14,7,88,53,17,30.44,30.24,30.00,10,10,10,31,15,37,0.00,0,,203
2013-3-27,61,45,28,28,23,18,69,47,25,30.15,30.02,29.88,10,10,10,22,12,28,0.00,0,,75
2013-3-28,66,49,32,38,32,26,78,55,31,30.15,30.10,30.03,10,10,8,15,9,20,0.00,0,,86
2013-3-29,71,54,36,50,43,35,100,72,44,30.12,30.05,29.97,10,9,4,21,10,29,0.00,1,,103
2013-3-30,74,57,39,47,40,31,100,60,20,30.06,29.97,29.89,10,6,0,33,13,41,T,1,Fog-Rain,356
2013-3-31,66,52,37,45,34,23,100,60,19,30.12,30.04,29.93,10,8,0,25,8,31,0.01,1,Fog-Rain,310